Time,TemperatureF,DewpointF,PressureIn,WindDirection,WindDirectionDegrees,WindSpeedMPH,WindSpeedGustMPH,Humidity,HourlyPrecipIn,Conditions,Clouds,dailyrainin,SoftwareType,DateUTC
2013-10-05 00:00:00,65.8,65.2,30.03,SSE,165,0.0,0.0,98,0.00,,---,0.00,VWS V14.01,2013-10-05 04:00:00,
2013-10-05 00:01:00,65.8,65.2,30.03,SSE,165,0.0,0.0,98,0.00,,---,0.06,VWS V14.01,2013-10-05 04:01:00,
2013-10-05 00:06:00,65.7,65.1,30.03,SSE,166,0.0,0.0,98,0.00,,---,0.00,VWS V14.01,2013-10-05 04:06:00,
2013-10-05 00:11:00,65.6,65.0,30.03,SSE,166,0.0,0.0,98,0.00,,---,0.00,VWS V14.01,2013-10-05 04:11:00,
2013-10-05 00:16:00,65.6,65.0,30.03,SSE,167,0.0,0.0,98,0.00,,---,0.00,VWS V14.01,2013-10-05 04:16:00,
2013-10-05 00:21:00,65.8,65.2,30.03,SSE,167,0.0,0.0,98,0.00,,---,0.00,VWS V14.01,2013-10-05 04:21:00,
2013-10-05 00:26:00,65.8,65.2,30.03,SSE,166,0.0,0.0,98,0.00,,---,0.00,VWS V14.01,2013-10-05 04:26:00,
2013-10-05 00:30:00,65.8,65.2,30.04,SSE,166,0.0,0.0,98,0.00,,---,0.00,VWS V14.01,2013-10-05 04:30:00,
2013-10-05 00:31:00,65.8,65.2,30.04,SSE,166,0.0,0.0,98,0.00,,---,0.00,VWS V14.01,2013-10-05 04:31:00,
2013-10-05 00:36:00,65.8,65.2,30.04,SSE,166,0.0,0.0,98,0.00,,---,0.00,VWS V14.01,2013-10-05 04:36:00,
2013-10-05 00:41:00,65.8,65.2,30.04,SSE,167,0.0,0.0,98,0.00,,---,0.00,VWS V14.01,2013-10-05 04:41:00,
2013-10-05 00:46:00,65.9,65.3,30.04,SSE,168,0.0,0.0,98,0.00,,---,0.00,VWS V14.01,2013-10-05 04:46:00,
2013-10-05 00:51:00,65.9,65.3,30.04,SSE,168,0.0,0.0,98,0.00,,---,0.00,VWS V14.01,2013-10-05 04:51:00,
2013-10-05 00:56:00,65.9,65.3,30.04,SSE,167,0.0,0.0,98,0.00,,---,0.00,VWS V14.01,2013-10-05 04:56:00,
2013-10-05 01:00:00,65.8,65.2,30.04,SSE,167,0.0,0.0,98,0.00,,---,0.00,VWS V14.01,2013-10-05 05:00:00,
2013-10-05 01:01:00,65.8,65.2,30.04,SSE,167,0.0,0.0,98,0.00,,---,0.00,VWS V14.01,2013-10-05 05:01:00,
2013-10-05 01:06:00,65.8,65.2,30.04,SSE,168,0.0,0.0,98,0.00,,---,0.00,VWS V14.01,2013-10-05 05:06:00,
2013-10-05 01:11:00,65.7,65.1,30.04,SSE,168,0.0,0.0,98,0.00,,---,0.00,VWS V14.01,2013-10-05 05:11:00,
2013-10-05 01:16:00,65.7,65.1,30.04,SSE,167,0.0,0.0,98,0.00,,---,0.00,VWS V14.01,2013-10-05 05:16:00,
2013-10-05 01:21:00,65.7,65.1,30.04,SSE,168,0.0,0.0,98,0.00,,---,0.00,VWS V14.01,2013-10-05 05:21:00,
2013-10-05 01:26:00,65.6,65.0,30.04,SSE,168,0.0,0.0,98,0.00,,---,0.00,VWS V14.01,2013-10-05 05:26:00,
2013-10-05 01:30:00,65.7,65.1,30.04,SSE,167,0.0,0.0,98,0.00,,---,0.00,VWS V14.01,2013-10-05 05:30:00,
2013-10-05 01:31:00,65.7,65.1,30.04,SSE,167,0.0,0.0,98,0.00,,---,0.00,VWS V14.01,2013-10-05 05:31:00,
2013-10-05 01:36:00,65.8,65.2,30.04,SSE,167,0.0,0.0,98,0.00,,---,0.00,VWS V14.01,2013-10-05 05:36:00,
2013-10-05 01:41:00,65.8,65.2,30.04,SSE,167,0.0,0.0,98,0.00,,---,0.00,VWS V14.01,2013-10-05 05:41:00,
2013-10-05 01:46:00,65.8,65.2,30.04,SSE,168,0.0,0.0,98,0.00,,---,0.00,VWS V14.01,2013-10-05 05:46:00,
2013-10-05 01:51:00,65.9,65.3,30.04,SSE,167,0.0,0.0,98,0.00,,---,0.00,VWS V14.01,2013-10-05 05:51:00,
2013-10-05 01:56:00,65.9,65.3,30.04,SSE,167,0.0,0.0,98,0.00,,---,0.00,VWS V14.01,2013-10-05 05:56:00,
2013-10-05 02:00:00,66.0,65.4,30.04,SSE,167,0.0,0.0,98,0.00,,---,0.00,VWS V14.01,2013-10-05 06:00:00,
2013-10-05 02:01:00,66.0,65.4,30.05,SSE,167,0.0,0.0,98,0.00,,---,0.00,VWS V14.01,2013-10-05 06:01:00,
2013-10-05 02:06:00,66.0,65.4,30.04,SSE,167,0.0,0.0,98,0.00,,---,0.00,VWS V14.01,2013-10-05 06:06:00,
2013-10-05 02:11:00,66.0,65.4,30.04,SSE,168,0.0,0.0,98,0.00,,---,0.00,VWS V14.01,2013-10-05 06:11:00,
2013-10-05 02:16:00,66.0,65.4,30.05,SSE,167,0.0,0.0,98,0.00,,---,0.00,VWS V14.01,2013-10-05 06:16:00,
2013-10-05 02:21:00,66.1,65.5,30.04,SSE,167,0.0,0.0,98,0.00,,---,0.00,VWS V14.01,2013-10-05 06:21:00,
2013-10-05 02:26:00,66.1,65.5,30.04,SSE,167,0.0,0.0,98,0.00,,---,0.00,VWS V14.01,2013-10-05 06:26:00,
2013-10-05 02:30:00,66.1,65.5,30.04,SSE,167,0.0,0.0,98,0.00,,---,0.00,VWS V14.01,2013-10-05 06:30:00,
2013-10-05 02:31:00,66.1,65.5,30.04,SSE,168,0.0,0.0,98,0.00,,---,0.00,VWS V14.01,2013-10-05 06:31:00,
2013-10-05 02:36:00,66.1,65.5,30.04,SSE,167,0.0,0.0,98,0.00,,---,0.00,VWS V14.01,2013-10-05 06:36:00,
2013-10-05 02:41:00,66.1,65.5,30.05,SSE,167,0.0,0.0,98,0.00,,---,0.00,VWS V14.01,2013-10-05 06:41:00,
2013-10-05 02:46:00,66.0,65.4,30.04,SSE,166,0.0,0.0,98,0.00,,---,0.00,VWS V14.01,2013-10-05 06:46:00,
2013-10-05 02:51:00,65.9,65.3,30.05,SSE,166,0.0,0.0,98,0.00,,---,0.00,VWS V14.01,2013-10-05 06:51:00,
2013-10-05 02:56:00,65.8,65.2,30.04,SSE,166,0.0,0.0,98,0.00,,---,0.00,VWS V14.01,2013-10-05 06:56:00,
2013-10-05 03:00:00,65.7,65.1,30.05,SSE,166,0.0,0.0,98,0.00,,---,0.00,VWS V14.01,2013-10-05 07:00:00,
2013-10-05 03:01:00,65.7,65.1,30.05,SSE,166,0.0,0.0,98,0.00,,---,0.00,VWS V14.01,2013-10-05 07:01:00,
2013-10-05 03:06:00,65.7,65.1,30.04,SSE,166,0.0,0.0,98,0.00,,---,0.00,VWS V14.01,2013-10-05 07:06:00,
2013-10-05 03:11:00,65.6,65.0,30.04,SSE,167,0.0,0.0,98,0.00,,---,0.00,VWS V14.01,2013-10-05 07:11:00,
2013-10-05 03:16:00,65.6,65.0,30.04,SSE,166,0.0,0.0,98,0.00,,---,0.00,VWS V14.01,2013-10-05 07:16:00,
2013-10-05 03:21:00,65.6,65.0,30.04,SSE,166,0.0,0.0,98,0.00,,---,0.00,VWS V14.01,2013-10-05 07:21:00,
2013-10-05 03:26:00,65.6,65.0,30.04,SSE,167,0.0,0.0,98,0.00,,---,0.00,VWS V14.01,2013-10-05 07:26:00,
2013-10-05 03:30:00,65.6,65.0,30.04,SSE,166,0.0,0.0,98,0.00,,---,0.00,VWS V14.01,2013-10-05 07:30:00,
2013-10-05 03:31:00,65.6,65.0,30.04,SSE,166,0.0,0.0,98,0.00,,---,0.00,VWS V14.01,2013-10-05 07:31:00,
2013-10-05 03:36:00,65.6,65.0,30.05,SSE,168,0.0,0.0,98,0.00,,---,0.00,VWS V14.01,2013-10-05 07:36:00,
2013-10-05 03:41:00,65.6,65.0,30.05,SSE,167,0.0,0.0,98,0.00,,---,0.00,VWS V14.01,2013-10-05 07:41:00,
2013-10-05 03:46:00,65.5,64.9,30.05,SSE,167,0.0,0.0,98,0.00,,---,0.00,VWS V14.01,2013-10-05 07:46:00,
2013-10-05 03:51:00,65.3,64.7,30.05,SSE,166,0.0,0.0,98,0.00,,---,0.00,VWS V14.01,2013-10-05 07:51:00,
2013-10-05 03:56:00,65.2,64.6,30.05,SSE,166,0.0,0.0,98,0.00,,---,0.00,VWS V14.01,2013-10-05 07:56:00,
2013-10-05 04:00:00,65.1,64.5,30.05,SSE,167,0.0,0.0,98,0.00,,---,0.00,VWS V14.01,2013-10-05 08:00:00,
2013-10-05 04:01:00,65.1,64.5,30.05,SSE,166,0.0,0.0,98,0.00,,---,0.00,VWS V14.01,2013-10-05 08:01:00,
2013-10-05 04:06:00,65.1,64.5,30.05,SSE,168,0.0,0.0,98,0.00,,---,0.00,VWS V14.01,2013-10-05 08:06:00,
2013-10-05 04:11:00,65.0,64.4,30.05,SSE,166,0.0,0.0,98,0.00,,---,0.00,VWS V14.01,2013-10-05 08:11:00,
2013-10-05 04:16:00,65.0,64.4,30.05,SSE,166,0.0,0.0,98,0.00,,---,0.00,VWS V14.01,2013-10-05 08:16:00,
2013-10-05 04:21:00,64.9,64.3,30.05,SSE,166,0.0,0.0,98,0.00,,---,0.00,VWS V14.01,2013-10-05 08:21:00,
2013-10-05 04:26:00,64.9,64.3,30.05,SSE,166,0.0,0.0,98,0.00,,---,0.00,VWS V14.01,2013-10-05 08:26:00,
2013-10-05 04:30:00,64.8,64.2,30.05,SSE,166,0.0,0.0,98,0.00,,---,0.00,VWS V14.01,2013-10-05 08:30:00,
2013-10-05 04:31:00,64.8,64.2,30.05,SSE,166,0.0,0.0,98,0.00,,---,0.00,VWS V14.01,2013-10-05 08:31:00,
2013-10-05 04:36:00,64.8,64.2,30.05,SSE,167,0.0,0.0,98,0.00,,---,0.00,VWS V14.01,2013-10-05 08:36:00,
2013-10-05 04:41:00,64.8,64.2,30.06,West,274,0.0,0.0,98,0.00,,---,0.00,VWS V14.01,2013-10-05 08:41:00,
2013-10-05 04:46:00,64.8,64.2,30.06,West,274,0.0,0.0,98,0.00,,---,0.00,VWS V14.01,2013-10-05 08:46:00,
2013-10-05 04:51:00,64.8,64.2,30.06,West,274,0.0,0.0,98,0.00,,---,0.00,VWS V14.01,2013-10-05 08:51:00,
2013-10-05 04:56:00,64.9,64.3,30.06,West,274,0.0,0.0,98,0.00,,---,0.00,VWS V14.01,2013-10-05 08:56:00,
2013-10-05 05:00:00,64.8,64.2,30.06,West,274,0.0,0.0,98,0.00,,---,0.00,VWS V14.01,2013-10-05 09:00:00,
2013-10-05 05:01:00,64.8,64.2,30.06,West,274,0.0,0.0,98,0.00,,---,0.00,VWS V14.01,2013-10-05 09:01:00,
2013-10-05 05:06:00,64.8,64.2,30.06,West,274,0.0,0.0,98,0.00,,---,0.00,VWS V14.01,2013-10-05 09:06:00,
2013-10-05 05:11:00,64.8,64.2,30.05,West,274,0.0,0.0,98,0.00,,---,0.00,VWS V14.01,2013-10-05 09:11:00,
2013-10-05 05:16:00,64.7,64.1,30.05,West,274,0.0,0.0,98,0.00,,---,0.00,VWS V14.01,2013-10-05 09:16:00,
2013-10-05 05:21:00,64.7,64.1,30.05,West,274,0.0,0.0,98,0.00,,---,0.00,VWS V14.01,2013-10-05 09:21:00,
2013-10-05 05:26:00,64.6,64.0,30.05,West,274,0.0,0.0,98,0.00,,---,0.00,VWS V14.01,2013-10-05 09:26:00,
2013-10-05 05:30:00,64.6,64.0,30.06,West,274,0.0,0.0,98,0.00,,---,0.00,VWS V14.01,2013-10-05 09:30:00,
2013-10-05 05:31:00,64.6,64.0,30.06,West,274,0.0,0.0,98,0.00,,---,0.00,VWS V14.01,2013-10-05 09:31:00,
2013-10-05 05:36:00,64.6,64.0,30.06,West,274,0.0,0.0,98,0.00,,---,0.00,VWS V14.01,2013-10-05 09:36:00,
2013-10-05 05:41:00,64.6,64.0,30.06,West,274,0.0,0.0,98,0.00,,---,0.00,VWS V14.01,2013-10-05 09:41:00,
2013-10-05 05:46:00,64.6,64.0,30.06,West,274,0.0,0.0,98,0.00,,---,0.00,VWS V14.01,2013-10-05 09:46:00,
2013-10-05 05:51:00,64.6,64.0,30.06,West,274,0.0,0.0,98,0.00,,---,0.00,VWS V14.01,2013-10-05 09:51:00,
2013-10-05 05:56:00,64.5,63.9,30.06,West,274,0.0,0.0,98,0.00,,---,0.00,VWS V14.01,2013-10-05 09:56:00,
2013-10-05 06:00:00,64.5,63.9,30.06,West,276,0.0,0.0,98,0.00,,---,0.00,VWS V14.01,2013-10-05 10:00:00,
2013-10-05 06:01:00,64.5,63.9,30.06,West,276,0.0,0.0,98,0.00,,---,0.00,VWS V14.01,2013-10-05 10:01:00,
2013-10-05 06:06:00,64.5,63.9,30.05,West,276,0.0,0.0,98,0.00,,---,0.00,VWS V14.01,2013-10-05 10:06:00,
2013-10-05 06:11:00,64.5,63.9,30.05,West,276,0.0,0.0,98,0.00,,---,0.00,VWS V14.01,2013-10-05 10:11:00,
2013-10-05 06:16:00,64.5,63.9,30.06,West,276,0.0,0.0,98,0.00,,---,0.00,VWS V14.01,2013-10-05 10:16:00,
2013-10-05 06:21:00,64.5,63.9,30.06,West,276,0.0,0.0,98,0.00,,---,0.00,VWS V14.01,2013-10-05 10:21:00,
2013-10-05 06:26:00,64.4,63.8,30.06,West,276,0.0,0.0,98,0.00,,---,0.00,VWS V14.01,2013-10-05 10:26:00,
2013-10-05 06:30:00,64.4,63.8,30.06,West,275,0.0,0.0,98,0.00,,---,0.00,VWS V14.01,2013-10-05 10:30:00,
2013-10-05 06:31:00,64.4,63.8,30.06,West,275,0.0,0.0,98,0.00,,---,0.00,VWS V14.01,2013-10-05 10:31:00,
2013-10-05 06:36:00,64.4,63.8,30.06,West,276,0.0,0.0,98,0.00,,---,0.00,VWS V14.01,2013-10-05 10:36:00,
2013-10-05 06:41:00,64.3,63.7,30.07,West,276,0.0,0.0,98,0.00,,---,0.00,VWS V14.01,2013-10-05 10:41:00,
2013-10-05 06:46:00,64.3,63.7,30.07,NNW,338,0.0,0.0,98,0.00,,---,0.00,VWS V14.01,2013-10-05 10:46:00,
2013-10-05 06:51:00,64.3,63.7,30.07,NNW,339,0.0,0.0,98,0.00,,---,0.00,VWS V14.01,2013-10-05 10:51:00,
2013-10-05 06:56:00,64.3,63.7,30.07,NNW,339,0.0,0.0,98,0.00,,---,0.00,VWS V14.01,2013-10-05 10:56:00,
2013-10-05 07:00:00,64.2,63.6,30.07,NNW,338,0.0,0.0,98,0.00,,---,0.00,VWS V14.01,2013-10-05 11:00:00,
2013-10-05 07:01:00,64.2,63.6,30.07,NNW,339,0.0,0.0,98,0.00,,---,0.00,VWS V14.01,2013-10-05 11:01:00,
2013-10-05 07:06:00,64.1,63.5,30.07,NNW,339,0.0,0.0,98,0.00,,---,0.00,VWS V14.01,2013-10-05 11:06:00,
2013-10-05 07:11:00,64.1,63.5,30.07,NNW,339,0.0,0.0,98,0.00,,---,0.00,VWS V14.01,2013-10-05 11:11:00,
2013-10-05 07:16:00,64.1,63.5,30.07,NNW,339,0.0,0.0,98,0.00,,---,0.00,VWS V14.01,2013-10-05 11:16:00,
2013-10-05 07:21:00,64.0,63.4,30.07,NNW,339,0.0,0.0,98,0.00,,---,0.00,VWS V14.01,2013-10-05 11:21:00,
2013-10-05 07:26:00,64.0,63.4,30.07,NNW,338,0.0,0.0,98,0.00,,---,0.00,VWS V14.01,2013-10-05 11:26:00,
2013-10-05 07:30:00,64.0,63.4,30.07,NNW,338,0.0,0.0,98,0.00,,---,0.00,VWS V14.01,2013-10-05 11:30:00,
2013-10-05 07:31:00,64.0,63.4,30.07,NNW,338,0.0,0.0,98,0.00,,---,0.00,VWS V14.01,2013-10-05 11:31:00,
2013-10-05 07:36:00,64.1,63.5,30.07,NNW,339,0.0,0.0,98,0.00,,---,0.00,VWS V14.01,2013-10-05 11:36:00,
2013-10-05 07:41:00,64.1,63.5,30.07,NNW,338,0.0,0.0,98,0.00,,---,0.00,VWS V14.01,2013-10-05 11:41:00,
2013-10-05 07:46:00,64.0,63.4,30.08,NNW,338,0.0,0.0,98,0.00,,---,0.00,VWS V14.01,2013-10-05 11:46:00,
2013-10-05 07:51:00,64.0,63.4,30.08,NNW,339,0.0,0.0,98,0.00,,---,0.00,VWS V14.01,2013-10-05 11:51:00,
2013-10-05 07:56:00,64.0,63.4,30.08,NNW,338,0.0,0.0,98,0.00,,---,0.00,VWS V14.01,2013-10-05 11:56:00,
2013-10-05 08:00:00,64.0,63.4,30.08,NNW,339,0.0,0.0,98,0.00,,---,0.00,VWS V14.01,2013-10-05 12:00:00,
2013-10-05 08:01:00,64.0,63.4,30.08,NNW,339,0.0,0.0,98,0.00,,---,0.00,VWS V14.01,2013-10-05 12:01:00,
2013-10-05 08:06:00,64.1,63.5,30.08,NNW,338,0.0,0.0,98,0.00,,---,0.00,VWS V14.01,2013-10-05 12:06:00,
2013-10-05 08:11:00,64.0,63.4,30.09,NNW,339,0.0,0.0,98,0.00,,---,0.00,VWS V14.01,2013-10-05 12:11:00,
2013-10-05 08:16:00,64.0,63.4,30.09,NNW,338,0.0,0.0,98,0.00,,---,0.00,VWS V14.01,2013-10-05 12:16:00,
2013-10-05 08:21:00,64.0,63.4,30.09,NNW,338,0.0,0.0,98,0.00,,---,0.00,VWS V14.01,2013-10-05 12:21:00,
2013-10-05 08:26:00,64.0,63.4,30.09,NNW,339,0.0,0.0,98,0.00,,---,0.00,VWS V14.01,2013-10-05 12:26:00,
2013-10-05 08:30:00,64.0,63.4,30.09,NNW,339,0.0,0.0,98,0.00,,---,0.00,VWS V14.01,2013-10-05 12:30:00,
2013-10-05 08:31:00,64.0,63.4,30.09,NNW,338,0.0,0.0,98,0.00,,---,0.00,VWS V14.01,2013-10-05 12:31:00,
2013-10-05 08:36:00,64.0,63.4,30.09,NNW,338,0.0,0.0,98,0.00,,---,0.00,VWS V14.01,2013-10-05 12:36:00,
2013-10-05 08:41:00,64.0,63.4,30.09,NNW,338,0.0,0.0,98,0.00,,---,0.00,VWS V14.01,2013-10-05 12:41:00,
2013-10-05 08:46:00,64.0,63.4,30.09,NNW,338,0.0,0.0,98,0.00,,---,0.00,VWS V14.01,2013-10-05 12:46:00,
2013-10-05 08:51:00,64.0,63.4,30.09,NNW,339,0.0,0.0,98,0.00,,---,0.00,VWS V14.01,2013-10-05 12:51:00,
2013-10-05 08:56:00,64.0,63.4,30.10,NNW,339,0.0,0.0,98,0.00,,---,0.00,VWS V14.01,2013-10-05 12:56:00,
2013-10-05 09:00:00,64.0,63.4,30.10,NNW,339,0.0,0.0,98,0.00,,---,0.00,VWS V14.01,2013-10-05 13:00:00,
2013-10-05 09:01:00,64.0,63.4,30.10,NNW,338,0.0,0.0,98,0.00,,---,0.00,VWS V14.01,2013-10-05 13:01:00,
2013-10-05 09:06:00,64.0,63.4,30.10,NNW,339,0.0,0.0,98,0.00,,---,0.00,VWS V14.01,2013-10-05 13:06:00,
2013-10-05 09:11:00,64.0,63.4,30.10,NNW,338,0.0,0.0,98,0.00,,---,0.00,VWS V14.01,2013-10-05 13:11:00,
2013-10-05 09:16:00,64.1,63.5,30.10,NNW,339,0.0,0.0,98,0.00,,---,0.00,VWS V14.01,2013-10-05 13:16:00,
2013-10-05 09:21:00,64.1,63.5,30.11,NNW,338,0.0,0.0,98,0.00,,---,0.00,VWS V14.01,2013-10-05 13:21:00,
2013-10-05 09:26:00,64.2,63.6,30.11,NNW,339,0.0,0.0,98,0.00,,---,0.00,VWS V14.01,2013-10-05 13:26:00,
2013-10-05 09:30:00,64.1,63.5,30.11,NNW,338,0.0,0.0,98,0.00,,---,0.00,VWS V14.01,2013-10-05 13:30:00,
2013-10-05 09:31:00,64.1,63.5,30.11,NNW,338,0.0,0.0,98,0.00,,---,0.00,VWS V14.01,2013-10-05 13:31:00,
2013-10-05 09:36:00,64.1,63.2,30.11,NNW,338,0.0,0.0,97,0.00,,---,0.00,VWS V14.01,2013-10-05 13:36:00,
2013-10-05 09:41:00,64.1,63.2,30.11,NNW,339,0.0,0.0,97,0.00,,---,0.00,VWS V14.01,2013-10-05 13:41:00,
2013-10-05 09:46:00,64.3,63.4,30.11,NNW,338,0.0,0.0,97,0.00,,---,0.00,VWS V14.01,2013-10-05 13:46:00,
2013-10-05 09:51:00,64.5,63.6,30.11,NNW,339,0.0,0.0,97,0.00,,---,0.00,VWS V14.01,2013-10-05 13:51:00,
2013-10-05 09:56:00,64.6,63.4,30.11,SSW,193,0.0,0.0,96,0.00,,---,0.00,VWS V14.01,2013-10-05 13:56:00,
2013-10-05 10:00:00,64.8,63.6,30.11,South,177,0.0,0.0,96,0.00,,---,0.00,VWS V14.01,2013-10-05 14:00:00,
2013-10-05 10:05:00,64.9,63.4,30.11,West,266,1.0,1.0,95,0.00,,---,0.00,VWS V14.01,2013-10-05 14:05:00,
2013-10-05 10:10:00,65.0,63.5,30.11,West,273,0.0,1.0,95,0.00,,---,0.00,VWS V14.01,2013-10-05 14:10:00,
2013-10-05 10:15:00,65.2,63.7,30.11,West,264,0.0,1.0,95,0.00,,---,0.00,VWS V14.01,2013-10-05 14:15:00,
2013-10-05 10:20:00,65.4,63.6,30.11,West,269,0.0,2.0,94,0.00,,---,0.00,VWS V14.01,2013-10-05 14:20:00,
2013-10-05 10:25:00,65.7,63.9,30.11,West,267,0.0,2.0,94,0.00,,---,0.00,VWS V14.01,2013-10-05 14:25:00,
2013-10-05 10:30:00,65.9,63.8,30.10,West,269,0.0,2.0,93,0.00,,---,0.00,VWS V14.01,2013-10-05 14:30:00,
2013-10-05 10:35:00,66.2,64.1,30.10,West,266,0.0,0.0,93,0.00,,---,0.00,VWS V14.01,2013-10-05 14:35:00,
2013-10-05 10:40:00,66.4,64.3,30.10,West,267,0.0,0.0,93,0.00,,---,0.00,VWS V14.01,2013-10-05 14:40:00,
2013-10-05 10:45:00,66.6,64.2,30.10,West,266,0.0,0.0,92,0.00,,---,0.00,VWS V14.01,2013-10-05 14:45:00,
2013-10-05 10:50:00,66.7,64.3,30.10,West,266,0.0,0.0,92,0.00,,---,0.00,VWS V14.01,2013-10-05 14:50:00,
2013-10-05 10:55:00,66.9,64.5,30.10,West,267,0.0,0.0,92,0.00,,---,0.00,VWS V14.01,2013-10-05 14:55:00,
2013-10-05 11:00:00,67.0,64.3,30.10,West,266,0.0,0.0,91,0.00,,---,0.00,VWS V14.01,2013-10-05 15:00:00,
2013-10-05 11:05:00,67.1,64.4,30.10,West,266,0.0,0.0,91,0.00,,---,0.00,VWS V14.01,2013-10-05 15:05:00,
2013-10-05 11:10:00,67.3,64.6,30.10,WSW,257,0.0,0.0,91,0.00,,---,0.00,VWS V14.01,2013-10-05 15:10:00,
2013-10-05 11:15:00,67.6,64.6,30.10,WSW,257,0.0,0.0,90,0.00,,---,0.00,VWS V14.01,2013-10-05 15:15:00,
2013-10-05 11:20:00,67.8,64.8,30.10,WSW,258,0.0,0.0,90,0.00,,---,0.00,VWS V14.01,2013-10-05 15:20:00,
2013-10-05 11:25:00,67.9,64.9,30.10,West,259,0.0,0.0,90,0.00,,---,0.00,VWS V14.01,2013-10-05 15:25:00,
2013-10-05 11:30:00,68.1,64.7,30.10,West,259,0.0,0.0,89,0.00,,---,0.00,VWS V14.01,2013-10-05 15:30:00,
2013-10-05 11:35:00,68.3,64.6,30.10,WSW,258,0.0,0.0,88,0.00,,---,0.00,VWS V14.01,2013-10-05 15:35:00,
2013-10-05 11:40:00,68.2,64.5,30.10,West,259,0.0,0.0,88,0.00,,---,0.00,VWS V14.01,2013-10-05 15:40:00,
2013-10-05 11:45:00,68.3,64.6,30.10,West,259,0.0,0.0,88,0.00,,---,0.00,VWS V14.01,2013-10-05 15:45:00,
2013-10-05 11:50:00,68.4,65.0,30.10,West,259,0.0,0.0,89,0.00,,---,0.00,VWS V14.01,2013-10-05 15:50:00,
2013-10-05 11:55:00,68.6,64.9,30.09,West,259,0.0,0.0,88,0.00,,---,0.00,VWS V14.01,2013-10-05 15:55:00,
2013-10-05 12:00:00,69.1,65.4,30.09,WSW,258,0.0,0.0,88,0.00,,---,0.00,VWS V14.01,2013-10-05 16:00:00,
2013-10-05 12:05:00,69.5,65.5,30.09,West,260,0.0,0.0,87,0.00,,---,0.00,VWS V14.01,2013-10-05 16:05:00,
2013-10-05 12:10:00,69.7,65.3,30.09,NE,44,0.0,0.0,86,0.00,,---,0.00,VWS V14.01,2013-10-05 16:10:00,
2013-10-05 12:15:00,70.0,65.6,30.09,East,101,0.0,0.0,86,0.00,,---,0.00,VWS V14.01,2013-10-05 16:15:00,
2013-10-05 12:20:00,70.4,65.3,30.09,ESE,102,0.0,0.0,84,0.00,,---,0.00,VWS V14.01,2013-10-05 16:20:00,
2013-10-05 12:25:00,70.5,65.4,30.09,East,80,0.0,0.0,84,0.00,,---,0.00,VWS V14.01,2013-10-05 16:25:00,
2013-10-05 12:30:00,70.4,65.3,30.09,East,80,0.0,0.0,84,0.00,,---,0.00,VWS V14.01,2013-10-05 16:30:00,
2013-10-05 12:35:00,70.7,65.6,30.08,NNE,33,2.0,2.0,84,0.00,,---,0.00,VWS V14.01,2013-10-05 16:35:00,
2013-10-05 12:40:00,71.3,65.9,30.08,NNW,337,1.0,2.0,83,0.00,,---,0.00,VWS V14.01,2013-10-05 16:40:00,
2013-10-05 12:45:00,71.8,66.0,30.08,WNW,303,0.0,2.0,82,0.00,,---,0.00,VWS V14.01,2013-10-05 16:45:00,
2013-10-05 12:50:00,72.1,65.9,30.08,North,10,1.0,2.0,81,0.00,,---,0.00,VWS V14.01,2013-10-05 16:50:00,
2013-10-05 12:55:00,72.5,66.0,30.07,SSE,158,2.0,2.0,80,0.00,,---,0.00,VWS V14.01,2013-10-05 16:55:00,
2013-10-05 13:00:00,72.9,66.0,30.07,ENE,68,1.0,2.0,79,0.00,,---,0.00,VWS V14.01,2013-10-05 17:00:00,
2013-10-05 13:05:00,73.1,66.2,30.07,ENE,67,1.0,1.0,79,0.00,,---,0.00,VWS V14.01,2013-10-05 17:05:00,
2013-10-05 13:10:00,73.5,66.2,30.07,ESE,103,0.0,1.0,78,0.00,,---,0.00,VWS V14.01,2013-10-05 17:10:00,
2013-10-05 13:15:00,74.2,66.2,30.06,NW,316,1.0,2.0,76,0.00,,---,0.00,VWS V14.01,2013-10-05 17:15:00,
2013-10-05 13:20:00,74.2,65.8,30.06,North,5,1.0,2.0,75,0.00,,---,0.00,VWS V14.01,2013-10-05 17:20:00,
2013-10-05 13:25:00,74.2,66.2,30.06,North,6,1.0,2.0,76,0.00,,---,0.00,VWS V14.01,2013-10-05 17:25:00,
2013-10-05 13:30:00,74.3,66.2,30.06,North,360,1.0,2.0,76,0.00,,---,0.00,VWS V14.01,2013-10-05 17:30:00,
2013-10-05 13:35:00,74.7,66.3,30.06,NNE,26,0.0,1.0,75,0.00,,---,0.00,VWS V14.01,2013-10-05 17:35:00,
2013-10-05 13:40:00,75.5,66.6,30.05,East,87,0.0,1.0,74,0.00,,---,0.00,VWS V14.01,2013-10-05 17:40:00,
2013-10-05 13:45:00,75.4,66.5,30.05,East,87,0.0,1.0,74,0.00,,---,0.00,VWS V14.01,2013-10-05 17:45:00,
2013-10-05 13:50:00,75.6,66.7,30.05,NE,46,1.0,1.0,74,0.00,,---,0.00,VWS V14.01,2013-10-05 17:50:00,
2013-10-05 13:55:00,75.7,66.4,30.05,NE,51,1.0,1.0,73,0.00,,---,0.00,VWS V14.01,2013-10-05 17:55:00,
2013-10-05 14:00:00,75.8,66.1,30.05,NE,44,0.0,2.0,72,0.00,,---,0.00,VWS V14.01,2013-10-05 18:00:00,
2013-10-05 14:05:00,76.0,66.3,30.04,NE,44,0.0,1.0,72,0.00,,---,0.00,VWS V14.01,2013-10-05 18:05:00,
2013-10-05 14:10:00,76.6,66.5,30.05,SSE,167,0.0,2.0,71,0.00,,---,0.00,VWS V14.01,2013-10-05 18:10:00,
2013-10-05 14:15:00,77.2,67.1,30.04,NNW,335,1.0,2.0,71,0.00,,---,0.00,VWS V14.01,2013-10-05 18:15:00,
2013-10-05 14:20:00,77.3,67.2,30.04,SE,127,0.0,2.0,71,0.00,,---,0.00,VWS V14.01,2013-10-05 18:20:00,
2013-10-05 14:25:00,77.7,66.7,30.04,WSW,241,0.0,2.0,69,0.00,,---,0.00,VWS V14.01,2013-10-05 18:25:00,
2013-10-05 14:30:00,78.2,66.8,30.03,South,169,1.0,4.0,68,0.00,,---,0.00,VWS V14.01,2013-10-05 18:30:00,
2013-10-05 14:35:00,78.8,67.4,30.03,SSE,152,1.0,2.0,68,0.00,,---,0.00,VWS V14.01,2013-10-05 18:35:00,
2013-10-05 14:40:00,79.3,67.0,30.03,SSE,155,1.0,4.0,66,0.00,,---,0.00,VWS V14.01,2013-10-05 18:40:00,
2013-10-05 14:45:00,79.4,67.1,30.04,SSW,210,0.0,4.0,66,0.00,,---,0.00,VWS V14.01,2013-10-05 18:45:00,
2013-10-05 14:50:00,78.8,66.5,30.04,NNE,31,1.0,4.0,66,0.00,,---,0.00,VWS V14.01,2013-10-05 18:50:00,
2013-10-05 14:55:00,78.5,66.6,30.04,SE,136,0.0,4.0,67,0.00,,---,0.00,VWS V14.01,2013-10-05 18:55:00,
2013-10-05 15:00:00,78.5,67.1,30.04,SE,131,0.0,4.0,68,0.00,,---,0.00,VWS V14.01,2013-10-05 19:00:00,
2013-10-05 15:05:00,78.6,67.2,30.04,SE,131,0.0,0.0,68,0.00,,---,0.00,VWS V14.01,2013-10-05 19:05:00,
2013-10-05 15:10:00,79.2,67.3,30.03,SSE,149,1.0,2.0,67,0.00,,---,0.00,VWS V14.01,2013-10-05 19:10:00,
2013-10-05 15:15:00,79.6,66.8,30.03,WNW,286,1.0,2.0,65,0.00,,---,0.00,VWS V14.01,2013-10-05 19:15:00,
2013-10-05 15:20:00,79.2,67.3,30.04,West,266,1.0,2.0,67,0.00,,---,0.00,VWS V14.01,2013-10-05 19:20:00,
2013-10-05 15:25:00,78.6,67.6,30.03,West,263,0.0,2.0,69,0.00,,---,0.00,VWS V14.01,2013-10-05 19:25:00,
2013-10-05 15:30:00,78.7,67.3,30.03,ESE,122,0.0,2.0,68,0.00,,---,0.00,VWS V14.01,2013-10-05 19:30:00,
2013-10-05 15:35:00,78.6,67.2,30.03,ESE,122,0.0,0.0,68,0.00,,---,0.00,VWS V14.01,2013-10-05 19:35:00,
2013-10-05 15:40:00,78.3,66.9,30.03,SE,134,0.0,1.0,68,0.00,,---,0.00,VWS V14.01,2013-10-05 19:40:00,
2013-10-05 15:45:00,78.0,67.0,30.04,SE,132,0.0,1.0,69,0.00,,---,0.00,VWS V14.01,2013-10-05 19:45:00,
2013-10-05 15:50:00,77.1,67.4,30.04,NE,37,0.0,2.0,72,0.00,,---,0.00,VWS V14.01,2013-10-05 19:50:00,
2013-10-05 15:55:00,76.6,67.3,30.03,ENE,66,0.0,2.0,73,0.00,,---,0.00,VWS V14.01,2013-10-05 19:55:00,
2013-10-05 16:00:00,76.2,67.3,30.03,North,8,0.0,2.0,74,0.00,,---,0.00,VWS V14.01,2013-10-05 20:00:00,
2013-10-05 16:05:00,76.2,67.3,30.03,ENE,61,0.0,1.0,74,0.00,,---,0.00,VWS V14.01,2013-10-05 20:05:00,
2013-10-05 16:10:00,76.5,67.2,30.03,SSW,212,0.0,1.0,73,0.00,,---,0.00,VWS V14.01,2013-10-05 20:10:00,
2013-10-05 16:15:00,76.6,67.3,30.03,SSW,211,0.0,1.0,73,0.00,,---,0.00,VWS V14.01,2013-10-05 20:15:00,
2013-10-05 16:20:00,76.5,67.2,30.03,ESE,105,0.0,3.0,73,0.00,,---,0.00,VWS V14.01,2013-10-05 20:20:00,
2013-10-05 16:25:00,76.6,67.3,30.03,ESE,107,0.0,3.0,73,0.00,,---,0.00,VWS V14.01,2013-10-05 20:25:00,
2013-10-05 16:30:00,76.5,67.2,30.03,NE,53,0.0,3.0,73,0.00,,---,0.00,VWS V14.01,2013-10-05 20:30:00,
2013-10-05 16:35:00,76.5,67.2,30.03,NE,43,0.0,1.0,73,0.00,,---,0.00,VWS V14.01,2013-10-05 20:35:00,
2013-10-05 16:40:00,76.4,66.7,30.03,South,179,0.0,1.0,72,0.00,,---,0.00,VWS V14.01,2013-10-05 20:40:00,
2013-10-05 16:45:00,76.1,66.8,30.04,WSW,256,0.0,2.0,73,0.00,,---,0.00,VWS V14.01,2013-10-05 20:45:00,
2013-10-05 16:50:00,75.6,67.1,30.04,WSW,256,0.0,2.0,75,0.00,,---,0.00,VWS V14.01,2013-10-05 20:50:00,
2013-10-05 16:55:00,75.2,66.7,30.04,WSW,256,0.0,2.0,75,0.00,,---,0.00,VWS V14.01,2013-10-05 20:55:00,
2013-10-05 17:00:00,74.8,66.7,30.04,NNW,347,0.0,2.0,76,0.00,,---,0.00,VWS V14.01,2013-10-05 21:00:00,
2013-10-05 17:05:00,74.6,66.9,30.04,NNW,347,0.0,1.0,77,0.00,,---,0.00,VWS V14.01,2013-10-05 21:05:00,
2013-10-05 17:10:00,74.7,67.0,30.04,NNW,347,0.0,1.0,77,0.00,,---,0.00,VWS V14.01,2013-10-05 21:10:00,
2013-10-05 17:15:00,74.6,66.5,30.04,NNW,344,0.0,2.0,76,0.00,,---,0.00,VWS V14.01,2013-10-05 21:15:00,
2013-10-05 17:20:00,74.5,66.8,30.04,NNW,339,0.0,2.0,77,0.00,,---,0.00,VWS V14.01,2013-10-05 21:20:00,
2013-10-05 17:25:00,74.3,66.6,30.04,NNW,338,0.0,2.0,77,0.00,,---,0.00,VWS V14.01,2013-10-05 21:25:00,
2013-10-05 17:30:00,74.1,66.8,30.04,NNW,338,0.0,2.0,78,0.00,,---,0.00,VWS V14.01,2013-10-05 21:30:00,
2013-10-05 17:35:00,73.8,66.9,30.04,NNW,338,0.0,0.0,79,0.00,,---,0.00,VWS V14.01,2013-10-05 21:35:00,
2013-10-05 17:40:00,73.5,66.6,30.04,NNW,338,0.0,0.0,79,0.00,,---,0.00,VWS V14.01,2013-10-05 21:40:00,
2013-10-05 17:45:00,73.4,66.5,30.04,NNW,339,0.0,0.0,79,0.00,,---,0.00,VWS V14.01,2013-10-05 21:45:00,
2013-10-05 17:50:00,73.4,66.9,30.04,NNW,338,0.0,0.0,80,0.00,,---,0.00,VWS V14.01,2013-10-05 21:50:00,
2013-10-05 17:55:00,73.2,66.7,30.04,North,3,1.0,1.0,80,0.00,,---,0.00,VWS V14.01,2013-10-05 21:55:00,
2013-10-05 18:00:00,73.1,66.9,30.04,North,3,0.0,1.0,81,0.00,,---,0.00,VWS V14.01,2013-10-05 22:00:00,
2013-10-05 18:05:00,72.9,66.4,30.04,North,4,0.0,1.0,80,0.00,,---,0.00,VWS V14.01,2013-10-05 22:05:00,
2013-10-05 18:10:00,72.7,66.5,30.04,North,3,0.0,1.0,81,0.00,,---,0.00,VWS V14.01,2013-10-05 22:10:00,
2013-10-05 18:15:00,72.6,66.4,30.04,North,4,0.0,1.0,81,0.00,,---,0.00,VWS V14.01,2013-10-05 22:15:00,
2013-10-05 18:20:00,72.4,66.2,30.04,North,4,0.0,1.0,81,0.00,,---,0.00,VWS V14.01,2013-10-05 22:20:00,
2013-10-05 18:25:00,72.4,66.6,30.04,North,3,0.0,1.0,82,0.00,,---,0.00,VWS V14.01,2013-10-05 22:25:00,
2013-10-05 18:30:00,72.1,66.7,30.04,North,3,0.0,1.0,83,0.00,,---,0.00,VWS V14.01,2013-10-05 22:30:00,
2013-10-05 18:35:00,71.9,66.5,30.04,North,4,0.0,0.0,83,0.00,,---,0.00,VWS V14.01,2013-10-05 22:35:00,
2013-10-05 18:40:00,71.7,66.6,30.05,North,3,0.0,0.0,84,0.00,,---,0.00,VWS V14.01,2013-10-05 22:40:00,
2013-10-05 18:45:00,71.5,66.4,30.04,North,3,0.0,0.0,84,0.00,,---,0.00,VWS V14.01,2013-10-05 22:45:00,
2013-10-05 18:50:00,71.4,66.7,30.04,North,3,0.0,0.0,85,0.00,,---,0.00,VWS V14.01,2013-10-05 22:50:00,
2013-10-05 18:55:00,71.2,66.8,30.05,North,4,0.0,0.0,86,0.00,,---,0.00,VWS V14.01,2013-10-05 22:55:00,
2013-10-05 19:00:00,71.0,66.6,30.05,North,3,0.0,0.0,86,0.00,,---,0.00,VWS V14.01,2013-10-05 23:00:00,
2013-10-05 19:05:00,70.7,66.3,30.05,North,3,0.0,0.0,86,0.00,,---,0.00,VWS V14.01,2013-10-05 23:05:00,
2013-10-05 19:10:00,70.5,66.4,30.05,North,3,0.0,0.0,87,0.00,,---,0.00,VWS V14.01,2013-10-05 23:10:00,
2013-10-05 19:15:00,70.3,66.2,30.05,North,3,0.0,0.0,87,0.00,,---,0.00,VWS V14.01,2013-10-05 23:15:00,
2013-10-05 19:20:00,70.1,66.1,30.05,North,4,0.0,0.0,87,0.00,,---,0.00,VWS V14.01,2013-10-05 23:20:00,
2013-10-05 19:25:00,70.0,66.3,30.05,North,3,0.0,0.0,88,0.00,,---,0.00,VWS V14.01,2013-10-05 23:25:00,
2013-10-05 19:30:00,69.9,66.2,30.05,North,3,0.0,0.0,88,0.00,,---,0.00,VWS V14.01,2013-10-05 23:30:00,
2013-10-05 19:35:00,69.7,66.0,30.05,North,3,0.0,0.0,88,0.00,,---,0.00,VWS V14.01,2013-10-05 23:35:00,
2013-10-05 19:40:00,69.6,65.9,30.05,North,3,0.0,0.0,88,0.00,,---,0.00,VWS V14.01,2013-10-05 23:40:00,
2013-10-05 19:45:00,69.4,65.7,30.05,North,4,0.0,0.0,88,0.00,,---,0.00,VWS V14.01,2013-10-05 23:45:00,
2013-10-05 19:50:00,69.4,65.7,30.05,North,3,0.0,0.0,88,0.00,,---,0.00,VWS V14.01,2013-10-05 23:50:00,
2013-10-05 19:55:00,69.2,65.8,30.05,North,3,0.0,0.0,89,0.00,,---,0.00,VWS V14.01,2013-10-05 23:55:00,
2013-10-05 20:00:00,69.2,65.5,30.06,North,4,0.0,0.0,88,0.00,,---,0.00,VWS V14.01,2013-10-06 00:00:00,
2013-10-05 20:05:00,69.2,65.8,30.06,North,3,0.0,0.0,89,0.00,,---,0.00,VWS V14.01,2013-10-06 00:05:00,
2013-10-05 20:10:00,69.1,65.7,30.06,North,3,0.0,0.0,89,0.00,,---,0.00,VWS V14.01,2013-10-06 00:10:00,
2013-10-05 20:15:00,69.1,65.7,30.06,North,4,0.0,0.0,89,0.00,,---,0.00,VWS V14.01,2013-10-06 00:15:00,
2013-10-05 20:20:00,69.1,66.1,30.06,North,4,0.0,0.0,90,0.00,,---,0.00,VWS V14.01,2013-10-06 00:20:00,
2013-10-05 20:25:00,69.0,65.9,30.06,North,4,0.0,0.0,90,0.00,,---,0.00,VWS V14.01,2013-10-06 00:25:00,
2013-10-05 20:30:00,68.9,65.8,30.06,North,3,0.0,0.0,90,0.00,,---,0.00,VWS V14.01,2013-10-06 00:30:00,
2013-10-05 20:35:00,68.8,65.8,30.06,North,3,0.0,0.0,90,0.00,,---,0.00,VWS V14.01,2013-10-06 00:35:00,
2013-10-05 20:40:00,68.6,65.6,30.06,North,3,0.0,0.0,90,0.00,,---,0.00,VWS V14.01,2013-10-06 00:40:00,
2013-10-05 20:45:00,68.6,65.2,30.07,North,3,0.0,0.0,89,0.00,,---,0.00,VWS V14.01,2013-10-06 00:45:00,
2013-10-05 20:50:00,68.6,65.6,30.07,North,4,0.0,0.0,90,0.00,,---,0.00,VWS V14.01,2013-10-06 00:50:00,
2013-10-05 20:55:00,68.4,65.4,30.07,North,4,0.0,0.0,90,0.00,,---,0.00,VWS V14.01,2013-10-06 00:55:00,
2013-10-05 21:00:00,68.3,65.3,30.07,North,3,0.0,0.0,90,0.00,,---,0.00,VWS V14.01,2013-10-06 01:00:00,
2013-10-05 21:05:00,68.3,65.3,30.07,North,3,0.0,0.0,90,0.00,,---,0.00,VWS V14.01,2013-10-06 01:05:00,
2013-10-05 21:10:00,68.3,65.6,30.08,North,3,0.0,0.0,91,0.00,,---,0.00,VWS V14.01,2013-10-06 01:10:00,
2013-10-05 21:15:00,68.2,65.5,30.07,North,3,0.0,0.0,91,0.00,,---,0.00,VWS V14.01,2013-10-06 01:15:00,
2013-10-05 21:20:00,68.1,65.4,30.07,North,4,0.0,0.0,91,0.00,,---,0.00,VWS V14.01,2013-10-06 01:20:00,
2013-10-05 21:25:00,68.1,65.4,30.08,North,4,0.0,0.0,91,0.00,,---,0.00,VWS V14.01,2013-10-06 01:25:00,
2013-10-05 21:30:00,67.9,65.2,30.08,North,3,0.0,0.0,91,0.00,,---,0.00,VWS V14.01,2013-10-06 01:30:00,
2013-10-05 21:35:00,67.7,65.0,30.08,North,3,0.0,0.0,91,0.00,,---,0.00,VWS V14.01,2013-10-06 01:35:00,
2013-10-05 21:40:00,67.6,64.9,30.08,North,3,0.0,0.0,91,0.00,,---,0.00,VWS V14.01,2013-10-06 01:40:00,
2013-10-05 21:45:00,67.4,64.7,30.08,North,4,0.0,0.0,91,0.00,,---,0.00,VWS V14.01,2013-10-06 01:45:00,
2013-10-05 21:50:00,67.3,64.6,30.08,North,4,0.0,0.0,91,0.00,,---,0.00,VWS V14.01,2013-10-06 01:50:00,
2013-10-05 21:55:00,67.2,64.5,30.08,North,3,0.0,0.0,91,0.00,,---,0.00,VWS V14.01,2013-10-06 01:55:00,
2013-10-05 22:00:00,67.0,64.3,30.08,North,3,0.0,0.0,91,0.00,,---,0.00,VWS V14.01,2013-10-06 02:00:00,
2013-10-05 22:05:00,66.9,64.2,30.08,SSE,168,0.0,1.0,91,0.00,,---,0.00,VWS V14.01,2013-10-06 02:05:00,
2013-10-05 22:10:00,66.9,64.5,30.08,South,173,0.0,1.0,92,0.00,,---,0.00,VWS V14.01,2013-10-06 02:10:00,
2013-10-05 22:15:00,66.8,64.4,30.09,NW,308,0.0,1.0,92,0.00,,---,0.00,VWS V14.01,2013-10-06 02:15:00,
2013-10-05 22:20:00,66.8,64.4,30.09,NW,308,0.0,1.0,92,0.00,,---,0.00,VWS V14.01,2013-10-06 02:20:00,
2013-10-05 22:25:00,66.8,64.1,30.09,NW,308,0.0,1.0,91,0.00,,---,0.00,VWS V14.01,2013-10-06 02:25:00,
2013-10-05 22:30:00,66.8,64.4,30.09,West,268,0.0,1.0,92,0.00,,---,0.00,VWS V14.01,2013-10-06 02:30:00,
2013-10-05 22:35:00,66.8,64.1,30.09,WSW,255,0.0,0.0,91,0.00,,---,0.00,VWS V14.01,2013-10-06 02:35:00,
2013-10-05 22:40:00,66.7,64.0,30.09,SE,136,0.0,2.0,91,0.00,,---,0.00,VWS V14.01,2013-10-06 02:40:00,
2013-10-05 22:45:00,66.7,64.0,30.09,West,280,0.0,2.0,91,0.00,,---,0.00,VWS V14.01,2013-10-06 02:45:00,
2013-10-05 22:50:00,66.7,64.0,30.09,South,173,1.0,2.0,91,0.00,,---,0.00,VWS V14.01,2013-10-06 02:50:00,
2013-10-05 22:55:00,66.7,64.0,30.09,West,280,0.0,2.0,91,0.00,,---,0.00,VWS V14.01,2013-10-06 02:55:00,
2013-10-05 23:00:00,66.7,64.3,30.09,West,263,0.0,2.0,92,0.00,,---,0.00,VWS V14.01,2013-10-06 03:00:00,
2013-10-05 23:05:00,66.6,64.2,30.09,West,263,0.0,0.0,92,0.00,,---,0.00,VWS V14.01,2013-10-06 03:05:00,
2013-10-05 23:10:00,66.6,64.2,30.09,West,263,0.0,0.0,92,0.00,,---,0.00,VWS V14.01,2013-10-06 03:10:00,
2013-10-05 23:15:00,66.5,64.1,30.09,West,262,1.0,1.0,92,0.00,,---,0.00,VWS V14.01,2013-10-06 03:15:00,
2013-10-05 23:20:00,66.4,64.0,30.09,WSW,258,0.0,1.0,92,0.00,,---,0.00,VWS V14.01,2013-10-06 03:20:00,
2013-10-05 23:25:00,66.4,64.0,30.09,West,270,0.0,2.0,92,0.00,,---,0.00,VWS V14.01,2013-10-06 03:25:00,
2013-10-05 23:30:00,66.3,63.9,30.09,West,270,0.0,2.0,92,0.00,,---,0.00,VWS V14.01,2013-10-06 03:30:00,
2013-10-05 23:35:00,66.3,63.9,30.09,West,269,1.0,1.0,92,0.00,,---,0.00,VWS V14.01,2013-10-06 03:35:00,
2013-10-05 23:40:00,66.2,63.8,30.08,SSW,205,0.0,1.0,92,0.00,,---,0.00,VWS V14.01,2013-10-06 03:40:00,
2013-10-05 23:45:00,66.2,64.1,30.08,SW,225,0.0,1.0,93,0.00,,---,0.00,VWS V14.01,2013-10-06 03:45:00,
2013-10-05 23:50:00,66.1,64.0,30.08,SW,214,0.0,1.0,93,0.00,,---,0.00,VWS V14.01,2013-10-06 03:50:00,
2013-10-05 23:55:00,66.0,63.9,30.08,South,169,0.0,1.0,93,0.00,,---,0.00,VWS V14.01,2013-10-06 03:55:00,